Location: Wawayanda State Park
(41.1833°N, 74.4333°W)
Time: 19:48:04
(UTC-05:00)

Daily predictions for brighter satellites

Satellite Brightness Start Highest point End
(mag) Time Altitude Azimuth Time Altitude Azimuth Time Altitude Azimuth
Cosmos 1048 Rocket 4.3 16:47:56 10° NNW 16:53:16 80° WSW 16:58:37 10° SSE
Okean 1 Rocket 3.7 16:50:35 10° NNW 16:54:52 61° W 16:59:08 10° S
Cosmos 1633 3.4 16:54:12 10° NNW 16:57:43 54° W 17:01:12 10° S
Cosmos 1544 Rocket 4.1 16:55:22 10° N 16:59:32 37° ENE 17:03:41 10° SE
COSMO-SKYMED 1 4.2 16:58:45 10° NE 17:01:23 16° E 17:04:00 10° SE
Cosmos 1975 Rocket 3.0 16:58:52 10° S 17:03:10 83° E 17:07:31 10° N
Cosmos 2263 Rocket 4.1 17:01:21 10° WSW 17:05:58 26° NW 17:10:39 10° N
PAYLOAD A 3.9 17:06:03 10° SSE 17:10:50 88° E 17:15:50 10° NNW
GEOS 3 Rocket 4.5 17:14:36 10° E 17:18:53 28° NE 17:23:10 10° NNW
Cosmos 1536 Rocket 4.1 17:15:41 10° SSE 17:19:48 38° E 17:23:58 10° NNE
SJ-7 4.5 17:17:52 10° SSE 17:22:03 63° ENE 17:26:16 10° N
USA 234 3.5 17:17:05 10° NE 17:23:35 69° NW 17:30:03 10° WSW
Tiangong 1 3.1 17:21:36 10° S 17:23:39 17° SSE 17:25:29 11° ESE
SPOT 3 Rocket 3.5 17:19:43 10° SSE 17:24:55 83° ENE 17:30:07 10° NNW
Okean 1 3.8 17:23:10 10° SSE 17:26:55 38° E 17:30:43 10° NNE
YAOGAN 1 2.5 17:23:37 10° SSE 17:27:56 79° ENE 17:32:16 10° N
Meteor 1-18 Rocket 4.3 17:22:25 10° S 17:27:57 61° E 17:33:37 10° NNE
Cosmos 1844 Rocket 3.0 17:25:26 10° SSW 17:30:59 68° WNW 17:36:37 10° NNE
Cosmos 1812 2.7 17:27:27 10° S 17:31:15 62° E 17:35:05 10° NNE
CZ-4 R/B 4.4 17:28:27 10° SSE 17:32:32 65° ENE 17:36:41 10° N
BREEZE M DEB (TANK) 3.9 17:22:35 10° SW 17:32:54 44° SSE 17:35:33 18° E
COSMOS 2487 3.6 17:33:31 10° N 17:36:30 24° ENE 17:38:37 15° ESE
EP 2 4.1 17:34:28 10° SSW 17:37:03 71° SE 17:38:30 23° NE
AQUARIUS 4.4 17:32:40 10° S 17:37:09 76° WSW 17:41:40 10° NNW
Cosmos 921 Rocket 4.4 17:34:16 10° SE 17:37:12 18° E 17:37:43 18° E
USA 32 4.2 17:32:39 10° S 17:37:51 79° W 17:43:06 10° N
NOSS 3-3 (A) 4.1 17:32:13 10° SSW 17:38:15 62° ESE 17:44:01 14° NE
NOSS 3-3 (C) 4.1 17:32:20 10° SSW 17:38:22 61° ESE 17:44:05 14° NE
FALCON 9 R/B 4.4 17:08:43 10° WSW 17:39:24 56° S 17:46:24 14° E
SL-8 Rocket 4.2 17:33:45 10° N 17:39:54 73° W 17:46:01 10° S
ISS -1.8 17:37:20 10° W 17:40:16 29° NNW 17:42:13 17° NNE
Cosmos 1346 Rocket 3.3 17:39:18 10° SSE 17:42:55 37° E 17:45:20 18° NE
IDEFIX/ARIANE 42P 2.9 17:40:18 10° S 17:45:28 68° WSW 17:50:39 10° NNW
CORIOLIS 4.4 17:40:29 10° S 17:45:53 77° WSW 17:51:19 10° NNW
ASTRO F (AKARI) 4.1 17:43:39 10° NNE 17:46:45 87° E 17:49:54 10° SSW
ATLAS 2AS CENTAUR R/B 3.1 17:39:05 10° NW 17:47:12 83° WSW 17:54:43 10° SSE
Cosmos 494 Rocket 4.0 17:42:00 10° NNW 17:47:16 89° ENE 17:52:32 10° SSE
Cosmos 1844 4.0 17:42:14 10° SSW 17:47:45 66° WNW 17:53:18 10° NNE
Cosmos 1455 Rocket 3.2 17:44:37 10° N 17:49:03 80° W 17:53:27 10° S
SKYMED 2 3.7 17:45:31 10° NNE 17:49:46 51° E 17:53:59 10° S
Cosmos 2297 4.2 17:44:55 10° S 17:50:02 37° ESE 17:53:05 21° NE
Cosmos 2366 rocket 4.1 17:44:48 10° N 17:51:11 82° W 17:57:28 10° S
Okean 1-7 Rocket 4.3 17:49:11 10° SSE 17:53:12 32° E 17:54:42 25° NE
CZ-3B DEB 2.4 17:51:32 10° WSW 17:55:17 69° NW 18:02:20 17° NE
Cosmos 2218 Rocket 4.4 17:49:33 10° NNW 17:55:47 66° W 18:01:55 10° S
MSX 3.9 17:52:23 10° S 17:58:09 81° WSW 18:03:55 10° NNW
CZ-4 R/B 3.7 17:58:56 10° SSW 18:02:32 28° W 18:06:09 10° NW
Cosmos 1809 Rocket 4.4 17:56:29 10° N 18:02:38 70° E 18:08:43 10° SSE
SMAP 4.5 17:59:02 10° SSW 18:03:25 41° W 18:07:49 10° NNW
Abrixas 3.9 18:01:29 10° NW 18:03:36 25° N 18:03:36 25° N
Cosmos 2278 Rocket 2.3 17:58:33 10° SSW 18:04:12 80° WNW 18:09:21 13° NNE
SL-24 DEB 4.3 17:59:54 10° N 18:04:40 82° W 18:09:21 10° S
Cosmos 1238 Rocket 4.1 18:04:48 10° SW 18:07:26 29° WNW 18:10:08 10° NNW
OTV 4 3.7 18:07:44 10° SW 18:08:16 10° SSW 18:08:49 10° SSW
BREEZE-M R/B 4.2 17:58:43 10° WSW 18:09:36 82° NNW 18:12:19 31° NE
CZ-2C R/B 4.0 18:05:07 10° SSW 18:09:42 37° W 18:14:26 10° NNW
Timation 2 Rocket 4.2 18:03:35 10° NNW 18:10:19 59° ENE 18:17:06 10° SE
Cosmos 1975 3.2 18:07:20 10° NNW 18:11:23 66° W 18:15:23 10° S
Meteor 1-19 Rocket 4.4 18:08:44 10° S 18:14:19 53° E 18:18:28 18° NNE
Genesis I 3.0 18:18:29 10° NNW 18:22:26 86° ENE 18:23:19 52° SE
NOAA 12 4.0 18:20:09 10° SSE 18:25:23 68° ENE 18:30:38 10° N
Cosmos 1821 Rocket 3.9 18:20:01 10° N 18:26:02 58° E 18:32:01 10° SSE
OE (NEXTSAT) 4.4 18:22:54 10° WSW 18:26:20 81° WSW 18:26:20 81° WSW
Cosmos 1484 Rocket 3.9 18:25:10 10° S 18:28:45 43° W 18:32:20 10° NNW
TIMED 4.3 18:24:53 10° SSW 18:29:14 83° ESE 18:29:59 61° NNE
Cosmos 2082 Rocket 2.1 18:24:08 10° NNW 18:29:47 68° ENE 18:33:42 21° SE
SL-8 R/B 3.9 18:25:08 10° WSW 18:29:52 62° NNW 18:30:50 50° NNE
DMSP B5D1-3 4.5 18:25:25 14° NNE 18:29:53 84° WNW 18:35:00 10° SSW
Cosmos 1833 Rocket 2.6 18:25:49 10° NNW 18:31:25 60° ENE 18:33:05 42° ESE
Meteor 1-13 Rocket 4.2 18:25:58 10° S 18:31:37 89° W 18:37:11 11° N
METEOR-M 4.0 18:28:13 10° SSE 18:33:31 68° ENE 18:38:49 10° N
NOSS 2-1 (D) 3.9 18:30:41 10° SSW 18:33:30 44° S 18:33:30 44° S
NOSS 2-1 (C) 4.0 18:31:22 10° SSW 18:34:09 42° S 18:34:09 42° S
COSMO-SKYMED 1 3.6 18:34:05 13° N 18:37:46 45° WNW 18:41:54 10° SW
Meteor 1-23 Rocket 4.2 18:38:05 10° S 18:43:21 58° ESE 18:43:21 58° ESE
Meteor 1-28 Rocket 3.7 18:45:30 57° WNW 18:45:30 57° WNW 18:49:12 10° SSW
Nadezhda 3 Rocket 4.4 18:42:35 10° SSW 18:48:42 60° W 18:54:54 10° N
Timation 1 Rocket 4.3 18:47:58 10° SSW 18:53:56 83° WNW 18:55:27 53° NNE
GEOS 3 Rocket 4.1 18:53:31 23° SSE 18:56:39 57° WSW 19:01:42 10° NW
Meteor 2-4 Rocket 3.5 18:53:08 10° S 18:58:30 88° SSW 18:58:30 88° SSW
Tiangong 1 4.1 18:56:31 10° WSW 18:57:12 15° WSW 18:57:12 15° WSW
Cosmos 2056 Rocket 4.5 18:57:35 10° S 19:00:49 37° S 19:00:49 37° S
Cosmos 1025 Rocket 4.5 19:04:56 10° SSW 19:07:27 33° SW 19:07:27 33° SW
ATLAS 3B CENTAUR R/B 4.0 18:59:37 10° WSW 19:13:26 35° SSW 19:15:57 29° SSE
BREEZE M DEB (TANK) 3.9 19:17:05 10° WNW 19:21:39 78° NNE 19:21:54 77° NE
NOSS 3-4 (A) 3.8 19:15:53 10° NNW 19:21:59 67° N 19:21:59 67° N
NOSS 3-4 (C) 3.8 19:15:59 10° NNW 19:22:03 66° N 19:22:03 66° N
CZ-3B DEB 4.5 20:26:00 10° WNW 20:30:57 37° NNW 20:30:57 37° NNW
